Tracking 29892 objects as of 21-Nov-2024
HD Live streaming from Space Station
objects crossing your sky now

STARLINK-4053

Track STARLINK-4053 now!
10-day predictions
STARLINK-4053 is classified as:


NORAD ID: 53536
Int'l Code: 2022-101K
Perigee: 546.1 km
Apogee: 547.6 km
Inclination: 53.2 °
Period: 95.4 minutes
Semi major axis: 6917 km
RCS: Unknown
Launch date: August 19, 2022
Source: United States (US)
Launch site: AIR FORCE EASTERN TEST RANGE (AFETR)
Your satellite tracking list
Your tracking list is empty




NASA's NSSDC Master Catalog

Two Line Element Set (TLE):
1 53536U 22101K   24325.22554260  .00003011  00000-0  20715-3 0  9993
2 53536  53.2157  33.9944 0001066 102.5289 257.5822 15.08845713124672
Source of the keplerian elements: AFSPC